This demonstration page uses our WeatherBlox Daily Observations layout. Learn more.

38.89511, -77.03637

Hourly Observations for January 28, 2018

Temp ( °F °C ) Dew Point ( °F °C ) Humidity (%) Winds ( mph kmh ) Pressure ( in mb ) Visibility ( mi km ) Precip ( " mm )
12:52 am 00:52 Cloudy 56 13.3 42 5.6 60 60 SSW 14 22 30.27 1025 10 16.0934 0 0.0254
1:52 am 01:52 Cloudy with Light Rain 55 12.8 44 6.7 67 67 SSW 15 24 30.26 1025 10 16.0934 0 0.0254
2:52 am 02:52 Cloudy with Light Rain 50 10 45 7.2 83 83 S 10 17 30.26 1025 10 16.0934 0 0.0254
3:52 am 03:52 Cloudy with Light Rain 50 10 47 8.3 89 89 S 10 17 30.25 1025 10 16.0934 0.03 0.762
4:11 am 04:11 Cloudy with Light Rain 49 9.4 46 7.8 90 90 S 12 19 30.24 1024 10 16.0934 0 0.0254
4:20 am 04:20 Cloudy with Light Rain 48 8.9 46 7.8 93 93 S 13 20 30.24 1024 10 16.0934 0 0.0254
4:52 am 04:52 Cloudy with Light Rain 48 8.9 46 7.8 93 93 S 10 17 30.25 1024 10 16.0934 0 0.0254
5:52 am 05:52 Cloudy with Light Rain 48 8.9 47 8.3 96 96 S 7 11 30.25 1024 10 16.0934 0.01 0.254
6:52 am 06:52 Cloudy with Light Rain 48 8.9 48 8.9 100 100 S 3 6 30.26 1025 10 16.0934 0 0.0254
7:04 am 07:04 Cloudy with Light Rain 49 9.4 48 8.9 97 97 S 3 6 30.27 1025 10 16.0934 0 0.0254
7:22 am 07:22 Cloudy with Light Rain 50 10 49 9.4 96 96 Calm 30.27 1025 10 16.0934 0 0.0254
7:31 am 07:31 Cloudy with Light Rain 50 10 49 9.4 96 96 Calm 30.27 1025 10 16.0934 0 0.0254
7:52 am 07:52 Cloudy with Light Rain 50 10 49 9.4 96 96 Calm 30.27 1025 9 14.48406 0 0.0254
8:20 am 08:20 Cloudy with Light Rain 49 9.4 49 9.4 100 100 Calm 30.27 1025 2 3.21868 0.01 0.254
8:30 am 08:30 Cloudy with Light Rain 49 9.4 49 9.4 100 100 SSE 3 6 30.27 1025 4 6.43736 0.01 0.254
8:52 am 08:52 Cloudy with Light Rain 50 10 50 10 100 100 S 3 6 30.27 1025 7 11.26538 0.01 0.254
9:25 am 09:25 Cloudy with Light Rain 51 10.6 50 10 96 96 SSE 3 6 30.27 1025 5 8.0467 0.02 0.508
9:46 am 09:46 Cloudy with Light Rain 48 9 48 9 100 100 S 6 9 30.27 1025 3 4.82802 0.03 0.762
9:52 am 09:52 Cloudy with Light Rain 49 9.4 48 8.9 97 97 S 5 7 30.27 1025 3 4.82802 0.03 0.762
10:41 am 10:41 Cloudy with Light Rain 51 10.6 51 10.6 100 100 S 5 7 30.27 1025 7 11.26538 0.02 0.508
10:52 am 10:52 Cloudy with Light Rain 51 10.6 51 10.6 100 100 S 3 6 30.27 1025 7 11.26538 0.02 0.508
11:39 am 11:39 Cloudy with Light Rain 51 10.6 51 10.6 100 100 SSE 3 6 30.27 1025 2 3.21868 0.01 0.254
11:52 am 11:52 Cloudy with Light Rain 51 10.6 51 10.6 100 100 Calm 30.25 1024 2.5 4.02335 0.02 0.508
12:04 pm 12:04 Cloudy with Light Rain 51 10.6 51 10.6 100 100 Calm 30.24 1024 2.5 4.02335 0 0.0254
12:18 pm 12:18 Cloudy with Light Rain 52 11.1 52 11.1 100 100 Calm 30.24 1024 3 4.82802 0 0.0254
12:27 pm 12:27 Cloudy with Light Rain 52 11.1 52 11.1 100 100 Calm 30.24 1024 2 3.21868 0.01 0.254
12:30 pm 12:30 Cloudy with Light Rain 51 10.6 51 10.6 100 100 Calm 30.24 1024 0.75 1.207005 0.01 0.254
12:52 pm 12:52 Cloudy with Light Rain 52 11.1 52 11.1 100 100 Calm 30.22 1024 2.5 4.02335 0.01 0.254
12:59 pm 12:59 Cloudy with Light Rain 52 11.1 52 11.1 100 100 NE 3 6 30.21 1023 3 4.82802 0.01 0.254
1:15 pm 13:15 Cloudy with Mist and Fog 52 11.1 52 11.1 100 100 NE 3 6 30.24 1024 3 4.82802 0.01 0.254
1:48 pm 13:48 Cloudy with Light Rain 52 11 52 11 100 100 NE 3 6 30.21 1023 1.5 2.41401 0.02 0.508
1:52 pm 13:52 Cloudy with Light Rain 52 11.1 52 11.1 100 100 ENE 5 7 30.21 1023 1.5 2.41401 0.02 0.508
2:11 pm 14:11 Cloudy with Light Rain 53 11.7 52 11.1 96 96 NE 5 7 30.21 1023 4 6.43736 0 0.0254
2:38 pm 14:38 Cloudy with Light Rain 50 10 50 10 100 100 NE 8 13 30.21 1023 10 16.0934 0 0.0254
2:52 pm 14:52 Cloudy with Light Rain 52 11.1 51 10.6 97 97 NE 7 11 30.2 1023 10 16.0934 0 0.0254
3:52 pm 15:52 Cloudy with Light Rain 51 10.6 49 9.4 92 92 NE 8 13 30.2 1023 10 16.0934 0 0.0254
4:01 pm 16:01 Cloudy with Light Rain 51 10.6 49 9.4 92 92 NE 7 11 30.21 1023 10 16.0934 0 0.0254
4:42 pm 16:42 Cloudy 51 10.6 50 10 96 96 NNE 5 7 30.21 1023 10 16.0934 0 0.0254
4:52 pm 16:52 Cloudy with Light Rain 52 11.1 50 10 93 93 NNE 5 7 30.21 1023 10 16.0934 0 0.0254
5:03 pm 17:03 Cloudy with Light Rain 51 10.6 49 9.4 92 92 NE 8 13 30.21 1023 10 16.0934 0 0.0254
5:14 pm 17:14 Cloudy with Light Rain 51 10.6 49 9.4 92 92 NE 10 17 30.21 1023 10 16.0934 0 0.0254
5:52 pm 17:52 Cloudy 51 10.6 49 9.4 92 92 ENE 7 11 30.21 1023 10 16.0934 0 0.0254
6:36 pm 18:36 Cloudy 51 10.6 49 9.4 92 92 N 5 7 30.21 1023 10 16.0934 0 0
6:52 pm 18:52 Cloudy 51 10.6 49 9.4 92 92 NE 6 9 30.22 1023 10 16.0934 0 0
7:09 pm 19:09 Cloudy 50 10 49 9.4 96 96 NE 7 11 30.21 1023 7 11.26538 0 0
7:28 pm 19:28 Cloudy 50 10 49 9.4 96 96 NE 6 9 30.24 1024 8 12.87472 0 0
7:36 pm 19:36 Cloudy 51 10.6 49 9.4 92 92 NE 6 9 30.24 1024 9 14.48406 0 0
7:52 pm 19:52 Cloudy 50 10 48 8.9 93 93 NE 8 13 30.23 1024 8 12.87472 0 0
8:25 pm 20:25 Cloudy 50 10 49 9.4 96 96 NNE 9 15 30.24 1024 7 11.26538 0 0
8:52 pm 20:52 Cloudy with Light Rain 49 9.4 48 8.9 97 97 N 8 13 30.23 1024 3 4.82802 0.01 0.254
9:08 pm 21:08 Cloudy with Light Rain 49 9.4 48 8.9 97 97 N 10 17 30.24 1024 4 6.43736 0 0.0254
9:38 pm 21:38 Cloudy with Light Rain 49 9.4 47 8.3 93 93 NNE 12 19 30.24 1024 7 11.26538 0 0.0254
9:52 pm 21:52 Cloudy with Light Rain 49 9.4 47 8.3 93 93 NNE 9 15 30.22 1024 7 11.26538 0 0.0254
10:08 pm 22:08 Cloudy with Mist and Fog 48 8.9 47 8.3 96 96 NNE 9 15 30.21 1023 4 6.43736 0 0.0254
10:52 pm 22:52 Cloudy with Mist and Fog 48 8.9 47 8.3 96 96 NNE 13 20 30.22 1023 5 8.0467 0 0.0254
11:00 pm 23:00 Cloudy with Mist and Fog 48 8.9 47 8.3 96 96 NNE 12 19 30.21 1023 5 8.0467 0 0
11:11 pm 23:11 Cloudy with Mist and Fog 48 8.9 47 8.3 96 96 NNE 12 19 30.21 1023 5 8.0467 0 0
11:37 pm 23:37 Cloudy with Mist and Fog 48 8.9 46 7.8 93 93 NNE 9 15 30.21 1023 5 8.0467 0 0
11:40 pm 23:40 Cloudy with Light Drizzle 48 8.9 46 7.8 93 93 NE 9 15 30.21 1023 5 8.0467 0 0.0254
11:52 pm 23:52 Cloudy with Light Drizzle 48 8.9 46 7.8 93 93 NNE 8 13 30.21 1023 5 8.0467 0 0.0254
11:59 pm 23:59 Cloudy with Light Drizzle 48 8.9 46 7.8 93 93 NNE 7 11 30.21 1023 7 11.26538 0 0.0254

Powered by AerisWeather